Location: Schommer Observatory
(40.5200°N, 74.4500°W)
Time: 03:20:49
(UTC-04:00)

X-37B - Pass Details

Date: 12 October 2017
Orbit: 259 x 286 km, 43.2° (Epoch: 06 October)

Event Time Altitude Azimuth Distance (km) Brightness Sun altitude
Exits shadow 05:29:35 25° 125° (SE) 564 3.4 -19.1°
Drops below altitude 10° 05:31:06 10° 89° (E) 1,030 5.5 -18.8°
Sets 05:33:06 0° 77° (ENE) 1,839 7.2 -18.4°
